Weather History for KCKV - October, 2013

Change the Weather History Date:

Thursday, October 10, 2013

  Actual Average Record
Temperature  
Mean Temperature 68 °F -  
Max Temperature 80 °F - 89 °F (2010)
Min Temperature 56 °F - 33 °F (1964)
Degree Days  
Heating Degree Days 0    
Month to date heating degree days 19  
Since 1 July heating degree days 27  
Cooling Degree Days 3    
Month to date cooling degree days 51  
Growing Degree Days 17 (Base 50)    
Moisture  
Dew Point 58 °F    
Average Humidity 73    
Maximum Humidity 100    
Minimum Humidity 45    
Precipitation  
Precipitation 0.00 in - 2.56 in (2002)
Month to date precipitation 1.54  
Sea Level Pressure  
Sea Level Pressure 30.11 in    
Wind  
Wind Speed 1 mph (ENE)    
Max Wind Speed 8 mph    
Max Gust Speed 10 mph    
Visibility 6 miles    
Events Fog    
T = Trace of Precipitation, MM = Missing Value Source: NWS Daily Summary

Daily Weather History Graph

Daily Weather History Graph

Search for Another Location

Airport or City:

Trip Planner

Search our weather history database for the weather conditions in past years. The results will help you decide how hot, cold, wet, or windy it might be!

Date:

Astronomy

Oct. 10, 2013 Rise Set
Actual Time 6:52 AM CDT 6:19 PM CDT
Civil Twilight 6:26 AM CDT 6:45 PM CDT
Nautical Twilight 5:56 AM CDT 7:15 PM CDT
Astronomical Twilight 5:26 AM CDT 7:45 PM CDT
Moon 12:38 PM CDT (10/10) 11:02 PM CDT (10/10)
Length of Visible Light 12h 18m
Length of Day
11h 27m
Waxing Crescent, 36% of the Moon is Illuminated
Oct 10
Waxing Crescent
Oct 11
First Quarter
Oct 18
Full
Oct 26
Last Quarter
Nov 3
New

Hourly Weather History & Observations

Time (CDT) Temp. Dew Point Humidity Pressure Visibility Wind Dir Wind Speed Gust Speed Precip Events Conditions
12:52 AM 62.1 °F 59.0 °F 90% 30.12 in 10.0 mi Calm Calm - N/A   Overcast
1:52 AM 60.1 °F 57.9 °F 93% 30.12 in 6.0 mi Calm Calm - N/A   Scattered Clouds
2:11 AM 59.0 °F 57.2 °F 94% 30.13 in 0.8 mi Calm Calm - N/A   Mostly Cloudy
2:32 AM 59.0 °F 57.2 °F 94% 30.13 in 2.0 mi Calm Calm - N/A   Scattered Clouds
2:40 AM 59.0 °F 57.2 °F 94% 30.13 in 4.0 mi Calm Calm - N/A   Mostly Cloudy
2:52 AM 57.9 °F 57.0 °F 97% 30.12 in 6.0 mi Calm Calm - N/A   Mostly Cloudy
3:35 AM 57.2 °F 55.4 °F 94% 30.12 in 1.8 mi Calm Calm - N/A   Partly Cloudy
3:43 AM 55.4 °F 55.4 °F 100% 30.12 in 0.2 mi East 3.5 mph - N/A Fog Fog
3:52 AM 57.0 °F 55.9 °F 96% 30.11 in 0.2 mi Calm Calm - N/A Fog Fog
4:52 AM 57.9 °F 57.0 °F 97% 30.12 in 0.8 mi Calm Calm - N/A   Partly Cloudy
5:28 AM 57.2 °F 55.4 °F 94% 30.14 in 2.5 mi Calm Calm - N/A   Overcast
5:35 AM 57.2 °F 55.4 °F 94% 30.14 in 4.0 mi Calm Calm - N/A   Overcast
5:46 AM 57.2 °F 55.4 °F 94% 30.14 in 1.8 mi Calm Calm - N/A   Mostly Cloudy
5:47 AM 57.9 °F 55.9 °F 93% 30.13 in 1.5 mi Calm Calm - N/A   Mostly Cloudy
5:58 AM 57.2 °F 55.4 °F 94% 30.14 in 0.5 mi Calm Calm - N/A Fog Fog
6:12 AM 57.2 °F 57.2 °F 100% 30.14 in 1.5 mi Calm Calm - N/A   Mostly Cloudy
6:25 AM 57.2 °F 55.4 °F 94% 30.14 in 3.0 mi Calm Calm - N/A   Mostly Cloudy
6:36 AM 57.2 °F 55.4 °F 94% 30.14 in 1.8 mi Calm Calm - N/A   Mostly Cloudy
6:52 AM 57.0 °F 55.9 °F 96% 30.14 in 2.5 mi Calm Calm - N/A   Overcast
7:15 AM 57.2 °F 57.2 °F 100% 30.15 in 4.0 mi Calm Calm - N/A   Overcast
7:52 AM 59.0 °F 57.9 °F 96% 30.16 in 4.0 mi Calm Calm - N/A   Overcast
8:52 AM 62.1 °F 59.0 °F 90% 30.16 in 6.0 mi East 3.5 mph - N/A   Overcast
9:52 AM 64.0 °F 60.1 °F 87% 30.17 in 7.0 mi Calm Calm - N/A   Overcast
10:52 AM 66.9 °F 60.1 °F 79% 30.16 in 9.0 mi Calm Calm - N/A   Overcast
11:52 AM 73.9 °F 60.1 °F 62% 30.14 in 10.0 mi Calm Calm - N/A   Mostly Cloudy
12:52 PM 77.0 °F 59.0 °F 54% 30.12 in 10.0 mi Calm Calm - N/A   Mostly Cloudy
1:52 PM 77.0 °F 59.0 °F 54% 30.09 in 10.0 mi Calm Calm - N/A   Clear
2:52 PM 79.0 °F 59.0 °F 50% 30.07 in 10.0 mi NNE 3.5 mph - N/A   Mostly Cloudy
3:52 PM 77.0 °F 57.0 °F 50% 30.06 in 10.0 mi Calm Calm - N/A   Overcast
4:52 PM 78.1 °F 55.9 °F 46% 30.05 in 10.0 mi Calm Calm - N/A   Overcast
5:52 PM 75.0 °F 61.0 °F 62% 30.04 in 10.0 mi Calm Calm - N/A   Mostly Cloudy
6:52 PM 68.0 °F 60.1 °F 76% 30.04 in 10.0 mi Calm Calm - N/A   Clear
7:52 PM 68.0 °F 61.0 °F 78% 30.04 in 10.0 mi Calm Calm - N/A   Mostly Cloudy
8:52 PM 64.9 °F 59.0 °F 81% 30.05 in 10.0 mi Calm Calm - N/A   Scattered Clouds
9:52 PM 64.0 °F 59.0 °F 84% 30.05 in 10.0 mi East 3.5 mph - N/A   Clear
10:52 PM 62.1 °F 57.0 °F 84% 30.05 in 10.0 mi East 4.6 mph - N/A   Clear
11:52 PM 60.1 °F 57.0 °F 90% 30.04 in 7.0 mi Calm Calm - N/A   Clear